[[{"header":{"parameterUnit":"m.s-1","parameterCategory":1,"la1":30.2991,"la2":30.254,"lo1":-89.0895,"lo2":-89.0444,"dy":0.0017,"dx":0.0017,"nx":28,"ny":28,"refTime":"2025-04-06T03:00:00:Z","depth":0,"parameterNumber":2,"parameterNumberName":"U-component_of_WINDS"},"data":[0,0,0,0,0,0,0,0,0,0,0,0,0,0,0,0,0,0,0,0,0,0,0,0,0,0,0,0,0,0,0,0,0,0,0,0,0,0,0,0,0,0,0,0,0,0,0,0,0,0,0,0,0,0,0,0,0,0,0.2573,0.2572,0,0.2538,0.2538,0.2537,0.2492,0.2491,0.2491,0.249,0.2456,0.2455,0.2455,0,0,0,0,0,0,0,0,0,0,0,0,0,0.2599,0.2599,0.2573,0.2572,0.2572,0.2538,0.2538,0.2537,0.2492,0.2491,0.249,0.2489,0.2456,0.2455,0.2455,0,0,0,0,0,0,0,0,0,0,0,0,0,0.2579,0.2599,0.2573,0.2545,0.2542,0.2538,0.2538,0.2537,0.2492,0.2491,0.249,0.2489,0.2456,0.2455,0.2455,0.2476,0,0,0.2454,0.2454,0,0,0,0,0,0,0,0,0.258,0.2578,0.255,0.2547,0.2544,0.2518,0.2535,0.2517,0.2493,0.2511,0.249,0.2488,0.2477,0.2475,0.2471,0.2474,0.2473,0.2454,0.2454,0.2454,0.2454,0,0,0,0,0,0,0,0.2581,0.2579,0.2559,0.2549,0.2546,0.2535,0.253,0.2531,0.2501,0.251,0.2506,0.2503,0.2476,0.2472,0.247,0.2472,0.2454,0.2454,0.2454,0.2454,0.2489,0.249,0,0,0,0,0,0,0.2587,0.258,0.256,0.2558,0.2559,0.2535,0.253,0.2528,0.2501,0.2496,0.2504,0.2501,0.2473,0.2471,0.2469,0.2491,0.2454,0.2454,0.2453,0.2488,0.249,0.2491,0,0,0,0,0,0,0.2588,0.2585,0.2561,0.2568,0.2564,0.2536,0.2533,0.2528,0.2524,0.2497,0.2491,0.2505,0.2472,0.2469,0.2474,0.2489,0.2453,0.2453,0.2487,0.2489,0.249,0.2535,0,0,0,0,0,0,0.2588,0.2586,0.2594,0.2569,0.2564,0.2568,0.2534,0.2528,0.2523,0.2519,0.2497,0.2492,0.2471,0.2475,0.2474,0.2488,0.2453,0.2485,0.2488,0.249,0.2532,0.2538,0.2543,0,0,0,0,0,0.259,0.2608,0.2594,0.2592,0.2573,0.2568,0.2566,0.2541,0.2524,0.2532,0.2514,0.2492,0.2487,0.2476,0.2474,0.2488,0.2484,0.2487,0.249,0.253,0.2537,0.2543,0,0,0,0,0,0,0.2636,0.2604,0.2589,0.2599,0.2587,0.2561,0.2569,0.255,0.2542,0.2538,0.2508,0.2503,0.2512,0.2501,0.2488,0.2506,0.2483,0.2485,0.2514,0.252,0.2526,0.2528,0.2453,0,0,0,0,0,0.2647,0.2646,0.2618,0.263,0.2625,0.2598,0.2595,0.2577,0.2563,0.2558,0.2541,0.2528,0.2523,0.2521,0.2516,0.253,0.2524,0.2539,0.2545,0.2549,0.2552,0.2558,0.2564,0.2499,0.2499,0.2499,0,0,0.267,0.2653,0.2654,0.2639,0.2627,0.2627,0.2594,0.2595,0.2594,0.2558,0.2561,0.2548,0.2532,0.2542,0.2545,0.2533,0.2568,0.2552,0.2556,0.2556,0.2561,0.2567,0.2572,0.2501,0.2501,0.25,0,0,0.2713,0.27,0.2708,0.2697,0.2679,0.2661,0.2663,0.264,0.263,0.2632,0.2605,0.2604,0.2597,0.2586,0.258,0.2617,0.2597,0.2616,0.2645,0.2652,0.2657,0.2661,0.2674,0.2679,0.2619,0.2619,0.2619,0,0.2744,0.2742,0.2715,0.2717,0.2711,0.2678,0.2686,0.2676,0.2658,0.2655,0.2641,0.2631,0.2617,0.2624,0.2633,0.2629,0.263,0.2619,0.2658,0.2662,0.2666,0.2678,0.2683,0.2622,0.2621,0.2621,0.2621,0,0.2781,0.278,0.2789,0.2771,0.2766,0.2772,0.2745,0.2744,0.2726,0.2709,0.2712,0.2695,0.2685,0.2686,0.2669,0.2689,0.2682,0.2664,0.2639,0.2675,0.2686,0.269,0.2625,0.2624,0.2623,0.2623,0,0,0.2852,0.2819,0.2822,0.2814,0.2792,0.279,0.2794,0.2784,0.2782,0.2771,0.2773,0.2767,0.275,0.2743,0.2724,0.273,0.276,0.271,0.271,0.272,0.2781,0.2795,0.2801,0.2746,0.2747,0.2748,0.2782,0,0.2889,0.2893,0.2869,0.2879,0.2878,0.2846,0.2849,0.2836,0.2821,0.2817,0.28,0.2796,0.2774,0.2769,0.2773,0.2756,0.2772,0.2753,0.2748,0.2748,0.2752,0.2806,0.2821,0.2855,0.2786,0.2787,0.2788,0,0.2934,0.2924,0.2935,0.2911,0.291,0.2913,0.2901,0.2898,0.2882,0.2871,0.2863,0.2841,0.2843,0.282,0.2821,0.2809,0.2805,0.2796,0.2797,0.2795,0.277,0.2806,0.2865,0.287,0.2794,0.2794,0.2793,0,0.2984,0.2973,0.2978,0.2971,0.2945,0.2948,0.2937,0.292,0.2915,0.2905,0.2901,0.2892,0.2886,0.288,0.2856,0.2841,0.286,0.2835,0.285,0.2851,0.2856,0.2856,0.2914,0.2854,0.2854,0.2854,0.2854,0,0.3028,0.3035,0.3,0.3002,0.301,0.2981,0.299,0.2975,0.296,0.296,0.2932,0.2932,0.2901,0.2898,0.2879,0.2883,0.2881,0.2871,0.2866,0.2874,0.2875,0.2871,0.2868,0.2855,0.2855,0.2855,0.2854,0,0.3084,0.3061,0.3064,0.3038,0.3032,0.3038,0.3016,0.3017,0.3,0.3,0.2998,0.2971,0.2966,0.2941,0.293,0.2917,0.2928,0.2918,0.2933,0.2929,0.2946,0.2945,0.3004,0.301,0.2947,0.2947,0.2948,0,0.3114,0.3119,0.3094,0.3091,0.3081,0.3078,0.3073,0.3045,0.3041,0.3023,0.3026,0.3019,0.3011,0.3003,0.2983,0.2974,0.2963,0.2985,0.2962,0.2969,0.2963,0.2963,0.2963,0.299,0.2991,0.2991,0.2992,0,0.3169,0.3157,0.315,0.314,0.3135,0.3125,0.3114,0.3113,0.3083,0.3079,0.3073,0.3067,0.3055,0.3048,0.3035,0.3024,0.3003,0.2999,0.3002,0.301,0.3018,0.3013,0.2946,0.2998,0.2997,0.2997,0.2997,0.2996,0.3212,0.3215,0.3197,0.3191,0.318,0.317,0.317,0.3152,0.3147,0.3135,0.3119,0.3115,0.3098,0.3079,0.307,0.3066,0.3054,0.3058,0.3059,0.3061,0.3064,0.3019,0.3063,0.3063,0.3063,0.3063,0.3063,0,0.3265,0.3252,0.3247,0.3232,0.3227,0.3207,0.3194,0.3191,0.3187,0.3174,0.3167,0.3159,0.3152,0.313,0.3121,0.3122,0.3112,0.312,0.3119,0.3117,0.3076,0.3074,0.3128,0.3128,0.3128,0.3128,0.3128,0.3128,0.3292,0.3295,0.3281,0.3278,0.3265,0.3261,0.3255,0.3245,0.3234,0.3227,0.3221,0.3207,0.319,0.3179,0.3171,0.3165,0.3162,0.3174,0.3165,0.3126,0.312,0.3114,0.3112,0.3174,0.3174,0.3206,0.3206,0.3206]},{"header":{"parameterUnit":"m.s-1","parameterCategory":1,"la1":30.2991,"la2":30.254,"lo1":-89.0895,"lo2":-89.0444,"dy":0.0017,"dx":0.0017,"nx":28,"ny":28,"refTime":"2025-04-06T03:00:00:Z","depth":0,"parameterNumber":3,"parameterNumberName":"V-component_of_WINDS"},"data":[0,0,0,0,0,0,0,0,0,0,0,0,0,0,0,0,0,0,0,0,0,0,0,0,0,0,0,0,0,0,0,0,0,0,0,0,0,0,0,0,0,0,0,0,0,0,0,0,0,0,0,0,0,0,0,0,0,0,7.4304,7.4306,0,7.4511,7.4514,7.4516,7.4526,7.4524,7.4521,7.4519,7.4733,7.474,7.4748,0,0,0,0,0,0,0,0,0,0,0,0,0,7.3919,7.3926,7.4304,7.4306,7.4309,7.4511,7.4514,7.4517,7.4527,7.4524,7.4521,7.4518,7.473,7.4739,7.4749,0,0,0,0,0,0,0,0,0,0,0,0,0,7.4102,7.3928,7.4303,7.4338,7.4343,7.451,7.4514,7.4517,7.4527,7.4524,7.452,7.4517,7.4727,7.4738,7.475,7.4897,0,0,7.4787,7.4792,0,0,0,0,0,0,0,0,7.4092,7.4116,7.4331,7.4336,7.4342,7.4489,7.4456,7.4645,7.4528,7.4458,7.4519,7.4515,7.4655,7.4672,7.4719,7.4907,7.4916,7.4788,7.4795,7.48,7.4803,0,0,0,0,0,0,0,7.4079,7.4107,7.4386,7.4334,7.4341,7.4344,7.4366,7.4492,7.4574,7.4463,7.4465,7.4489,7.4657,7.4708,7.4724,7.4919,7.4787,7.4798,7.4805,7.481,7.524,7.5244,0,0,0,0,0,0,7.4059,7.4097,7.4379,7.4392,7.4205,7.4354,7.4379,7.4446,7.4573,7.4588,7.4492,7.4489,7.4689,7.471,7.4732,7.4914,7.48,7.4811,7.4818,7.5236,7.5241,7.5245,0,0,0,0,0,0,7.4051,7.4084,7.4371,7.4245,7.4282,7.4365,7.444,7.4452,7.4502,7.4594,7.4609,7.4528,7.4687,7.4715,7.4856,7.4921,7.4816,7.4827,7.5231,7.5237,7.5243,7.5277,0,0,0,0,0,0,7.404,7.4081,7.4137,7.4246,7.4288,7.4491,7.4444,7.4458,7.4523,7.452,7.4632,7.4647,7.4686,7.4838,7.4868,7.4936,7.4837,7.5225,7.5234,7.5241,7.5271,7.5284,7.5295,0,0,0,0,0,7.4026,7.4138,7.414,7.4174,7.436,7.4495,7.4519,7.4561,7.4528,7.4585,7.4645,7.4644,7.4909,7.4853,7.4886,7.4958,7.5221,7.5231,7.5241,7.5265,7.5281,7.5295,0,0,0,0,0,0,7.4034,7.4153,7.4156,7.4306,7.4391,7.4496,7.457,7.4577,7.4672,7.4666,7.4715,7.474,7.4881,7.4934,7.4869,7.5108,7.5061,7.5078,7.5069,7.5085,7.5097,7.5082,7.4846,0,0,0,0,0,7.4053,7.4152,7.4251,7.4374,7.4416,7.4486,7.4546,7.4572,7.4661,7.4697,7.4766,7.4853,7.4957,7.5023,7.5123,7.5278,7.5304,7.5344,7.5357,7.5366,7.5381,7.5469,7.5489,7.5277,7.5277,7.5277,0,0,7.4094,7.4171,7.4231,7.4378,7.4446,7.4549,7.4516,7.4625,7.4702,7.4713,7.4851,7.4906,7.5006,7.5155,7.5225,7.5204,7.5445,7.5379,7.5386,7.5395,7.5481,7.5501,7.5519,7.5284,7.5282,7.5281,0,0,7.4221,7.4289,7.44,7.4469,7.4573,7.4619,7.4646,7.4751,7.4788,7.4927,7.4938,7.5031,7.5207,7.5279,7.5339,7.5496,7.55,7.5527,7.5592,7.5677,7.5694,7.5709,7.5767,7.5787,7.5541,7.5541,7.5541,0,7.4259,7.4413,7.4456,7.4567,7.4632,7.4647,7.4761,7.4826,7.4957,7.5003,7.4977,7.5201,7.5269,7.5437,7.5475,7.5522,7.5556,7.5515,7.5688,7.5704,7.5719,7.5775,7.5796,7.5544,7.5543,7.5543,7.5543,0,7.4456,7.4563,7.4641,7.4768,7.4842,7.4953,7.5014,7.5084,7.5104,7.5152,7.5296,7.5379,7.5497,7.5538,7.5558,7.571,7.5694,7.5678,7.5632,7.5741,7.5794,7.5816,7.5548,7.5547,7.5546,7.5545,0,0,7.4593,7.4744,7.4771,7.483,7.4947,7.5031,7.5144,7.526,7.532,7.5411,7.5508,7.5658,7.5645,7.5712,7.5741,7.5816,7.5938,7.5791,7.5794,7.5817,7.6113,7.6125,7.6149,7.594,7.5945,7.5948,7.6105,0,7.4734,7.4936,7.4978,7.5153,7.5254,7.527,7.5369,7.5452,7.5502,7.5595,7.565,7.5756,7.5729,7.5771,7.5846,7.5907,7.5998,7.5896,7.6033,7.6037,7.6009,7.6177,7.619,7.6333,7.6126,7.6129,7.6132,0,7.4926,7.5022,7.5206,7.5312,7.5356,7.5444,7.5555,7.5644,7.5739,7.577,7.5846,7.5867,7.5987,7.5935,7.6102,7.6032,7.6091,7.613,7.6136,7.6152,7.6092,7.6198,7.638,7.6402,7.6165,7.6162,7.616,0,7.501,7.5185,7.5319,7.5369,7.5494,7.5556,7.5612,7.5703,7.5771,7.5868,7.5913,7.6022,7.6083,7.6168,7.6219,7.6176,7.6383,7.6334,7.6413,7.6412,7.6457,7.6454,7.6652,7.6492,7.6492,7.6491,7.6491,0,7.5164,7.5277,7.5359,7.5441,7.5569,7.5617,7.5742,7.5798,7.588,7.5974,7.5995,7.6083,7.6144,7.6242,7.6282,7.6416,7.6442,7.6472,7.6481,7.6471,7.6467,7.6511,7.6503,7.6497,7.6496,7.6495,7.6494,0,7.528,7.5339,7.5486,7.5594,7.5624,7.5713,7.5806,7.5887,7.5937,7.6057,7.6088,7.6167,7.6283,7.6341,7.6486,7.6513,7.6665,7.6667,7.6632,7.6637,7.6713,7.6706,7.6948,7.6983,7.6798,7.6799,7.6801,0,7.5375,7.5462,7.558,7.5645,7.5702,7.5805,7.5875,7.5927,7.5998,7.6115,7.6183,7.63,7.6397,7.6582,7.6653,7.6764,7.677,7.6848,7.6787,7.6775,7.6774,7.6769,7.6779,7.6859,7.686,7.6862,7.6863,0,7.5538,7.5564,7.5663,7.5773,7.5856,7.5945,7.6033,7.6085,7.6152,7.6232,7.6351,7.6426,7.6574,7.6691,7.6808,7.6866,7.6877,7.6882,7.6906,7.6897,7.6874,7.689,7.6664,7.6876,7.6875,7.6874,7.6873,7.6873,7.5648,7.5727,7.5823,7.5934,7.6006,7.6088,7.6171,7.6231,7.6332,7.6456,7.6481,7.6608,7.6703,7.6861,7.6924,7.7025,7.7008,7.7043,7.7052,7.7061,7.7065,7.6857,7.7046,7.7045,7.7045,7.7045,7.7045,0,7.5814,7.5877,7.5978,7.6101,7.6189,7.6191,7.6289,7.6363,7.6474,7.6562,7.6657,7.6795,7.6909,7.6989,7.7106,7.7171,7.718,7.72,7.7197,7.7211,7.7072,7.704,7.7192,7.7192,7.7192,7.7192,7.7192,7.7192,7.5911,7.6046,7.6083,7.6255,7.6317,7.6442,7.6498,7.6575,7.6646,7.6799,7.6894,7.6945,7.7032,7.7155,7.726,7.7281,7.7324,7.7345,7.7366,7.7236,7.722,7.7205,7.7176,7.7353,7.7354,7.7497,7.7498,7.7499]}]]